Terminal Aerodrome Forecast
Issued by NWS

Home | Current Version | Previous Version | Text Only | Print | Product List | Glossary On
Versions: 1 2 3 4 5 6 7 8 9 10 11 12 13 14 15 16 17 18 19 20 21 22 23 24 25 26
000
FTUS41 KBUF 170303 AAA
TAFJHW
TAF AMD
KJHW 170303Z 1703/1724 VRB03KT P6SM SKC
     FM171100 20007KT P6SM SCT035
     FM171400 22010G16KT P6SM FEW250
     FM172300 22010KT P6SM FEW250
      AMD LTD TO CLD VIS AND WIND=

USA.gov is the U.S. government's official web portal to all federal, state and local government web resources and services.